Location: *
(43.9900°N, 3.4811°E)
Time: 13:49:52
(UTC+00:00)

Cosmos 44 Rocket - Pass Details

Date: 25 August 2019
Orbit: 653 x 737 km, 65.1° (Epoch: 19 September)

Event Time Altitude Azimuth Distance (km) Brightness Sun altitude
Rises 19:21:41 0° 325° (NW) 3,042 7.7 -8.8°
Reaches altitude 10° 19:24:02 10° 325° (NW) 2,111 6.8 -9.1°
Maximum altitude 19:28:50 89° 240° (WSW) 669 3.2 -9.9°
Drops below altitude 10° 19:33:31 10° 148° (SSE) 2,062 5.2 -10.7°
Enters shadow 19:33:32 10° 148° (SSE) 2,069 5.2 -10.7°
